Le Luc, France

7:10 PM CET on November 18, 2017 (GMT +0100)
Le Cannet Army

Weather History for LFMC - April, 2013

Change the Weather History Date:

Sunday, April 7, 2013

  Actual Average Record
Temperature  
Mean Temperature 60 °F -  
Max Temperature 69 °F 64 °F - ()
Min Temperature 50 °F 49 °F - ()
Degree Days  
Heating Degree Days 6    
Growing Degree Days 10 (Base 50)    
Moisture  
Dew Point 42 °F    
Average Humidity 58    
Maximum Humidity 82    
Minimum Humidity 35    
Precipitation  
Precipitation 0.00 in - - ()
Sea Level Pressure  
Sea Level Pressure 29.80 in    
Wind  
Wind Speed 5 mph ()    
Max Wind Speed 14 mph    
Max Gust Speed -    
Visibility 6.2 miles    
Events Rain    
T = Trace of Precipitation, MM = Missing Value Source: Averaged Metar Reports

Daily Weather History Graph

Daily Weather History Graph

Search for Another Location

Airport or City:

Trip Planner

Search our weather history database for the weather conditions in past years. The results will help you decide how hot, cold, wet, or windy it might be!

Date:

Astronomy

Apr. 07, 2013 Rise Set
Actual Time 7:05 AM CEST 8:08 PM CEST
Civil Twilight 6:36 AM CEST 8:37 PM CEST
Nautical Twilight 6:01 AM CEST 9:12 PM CEST
Astronomical Twilight 5:25 AM CEST 9:48 PM CEST
Moon 5:19 AM CEST (4/7) 5:19 PM CEST (4/7)
Length of Visible Light 14h 00m
Length of Day
13h 02m
Waning Crescent, 10% of the Moon is Illuminated
Apr 7
Waning Crescent
Apr 10
New
Apr 18
First Quarter
Apr 25
Full
May 2
Last Quarter

Hourly Weather History & Observations

Time (CEST) Temp. Dew Point Humidity Pressure Visibility Wind Dir Wind Speed Gust Speed Precip Events Conditions
12:00 AM 51.8 °F 46.4 °F 82% 29.83 in 6.2 mi South 4.6 mph - N/A   Unknown
12:30 AM 51.8 °F 46.4 °F 82% 29.83 in 6.2 mi Variable 2.3 mph - N/A Rain Light Rain
1:00 AM 51.8 °F 46.4 °F 82% 29.83 in 6.2 mi Variable 2.3 mph - N/A Rain Light Rain
1:30 AM 51.8 °F 46.4 °F 82% 29.83 in 6.2 mi WSW 4.6 mph - N/A   Unknown
2:00 AM 51.8 °F 44.6 °F 76% 29.83 in 6.2 mi SSW 3.5 mph - N/A   Unknown
2:30 AM 51.8 °F 42.8 °F 71% 29.83 in 6.2 mi SW 4.6 mph - N/A Rain Light Rain
3:00 AM 51.8 °F 42.8 °F 71% 29.83 in 6.2 mi WSW 5.8 mph - N/A   Unknown
3:30 AM 51.8 °F 42.8 °F 71% 29.83 in 6.2 mi SW 3.5 mph - N/A   Unknown
4:00 AM 50.0 °F 42.8 °F 76% 29.83 in 6.2 mi SW 3.5 mph - N/A   Unknown
4:30 AM 50.0 °F 42.8 °F 76% 29.83 in 6.2 mi SW 4.6 mph - N/A   Unknown
5:00 AM 50.0 °F 41.0 °F 71% 29.83 in 6.2 mi SW 4.6 mph - N/A   Unknown
5:30 AM 50.0 °F 41.0 °F 71% 29.83 in 6.2 mi SW 4.6 mph - N/A   Unknown
6:00 AM 50.0 °F 41.0 °F 71% 29.83 in 6.2 mi WSW 6.9 mph - N/A   Unknown
6:30 AM 50.0 °F 39.2 °F 66% 29.83 in 6.2 mi WSW 6.9 mph - N/A   Unknown
7:00 AM 50.0 °F 39.2 °F 66% 29.83 in 6.2 mi WSW 5.8 mph - N/A   Unknown
7:30 AM 50.0 °F 39.2 °F 66% 29.83 in 6.2 mi WSW 8.1 mph - N/A   Unknown
8:00 AM 50.0 °F 39.2 °F 66% 29.83 in 5.6 mi WSW 6.9 mph - N/A   Unknown
8:30 AM 51.8 °F 39.2 °F 62% 29.83 in 6.2 mi West 8.1 mph - N/A   Unknown
9:00 AM 51.8 °F 39.2 °F 62% 29.83 in 6.2 mi SW 4.6 mph - N/A   Unknown
9:30 AM 51.8 °F 39.2 °F 62% 29.83 in 6.2 mi SW 6.9 mph - N/A   Unknown
10:00 AM 53.6 °F 41.0 °F 62% 29.83 in 6.2 mi WSW 10.4 mph - N/A   Unknown
10:30 AM 57.2 °F 41.0 °F 55% 29.83 in 6.2 mi West 9.2 mph - N/A   Unknown
11:00 AM 59.0 °F 41.0 °F 51% 29.83 in 6.2 mi SW 6.9 mph - N/A   Unknown
11:30 AM 60.8 °F 41.0 °F 48% 29.83 in 6.2 mi SW 5.8 mph - N/A   Unknown
12:00 PM 64.4 °F 41.0 °F 42% 29.80 in 6.2 mi WSW 5.8 mph - N/A   Unknown
12:30 PM 66.2 °F 41.0 °F 40% 29.80 in 6.2 mi West 8.1 mph - N/A   Unknown
1:00 PM 66.2 °F 41.0 °F 40% 29.80 in 6.2 mi West 9.2 mph - N/A   Unknown
1:30 PM 68.0 °F 39.2 °F 35% 29.77 in 6.2 mi Variable 5.8 mph - N/A   Unknown
2:00 PM 69.8 °F 41.0 °F 35% 29.77 in 6.2 mi SSW 4.6 mph - N/A   Unknown
2:30 PM 69.8 °F 41.0 °F 35% 29.77 in 6.2 mi Variable 5.8 mph - N/A   Unknown
3:00 PM 68.0 °F 41.0 °F 37% 29.74 in 6.2 mi West 8.1 mph - N/A   Unknown
3:30 PM 69.8 °F 42.8 °F 38% 29.74 in 6.2 mi SW 6.9 mph - N/A   Unknown
4:00 PM 69.8 °F 41.0 °F 35% 29.74 in 6.2 mi WSW 8.1 mph - N/A   Unknown
4:30 PM 69.8 °F 42.8 °F 38% 29.74 in 6.2 mi WSW 8.1 mph - N/A   Unknown
5:00 PM 69.8 °F 42.8 °F 38% 29.74 in 6.2 mi SSW 6.9 mph - N/A   Unknown
5:30 PM 68.0 °F 41.0 °F 37% 29.71 in 6.2 mi SSW 6.9 mph - N/A   Unknown
6:00 PM 68.0 °F 41.0 °F 37% 29.71 in 6.2 mi SW 8.1 mph - N/A   Unknown
6:30 PM 68.0 °F 41.0 °F 37% 29.74 in 6.2 mi SW 5.8 mph - N/A   Unknown
7:00 PM 66.2 °F 39.2 °F 37% 29.74 in 6.2 mi WSW 9.2 mph - N/A   Unknown
7:30 PM 59.0 °F 44.6 °F 59% 29.77 in 6.2 mi NNE 13.8 mph - N/A   Unknown
8:00 PM 57.2 °F 44.6 °F 63% 29.77 in 6.2 mi NNE 10.4 mph - N/A   Unknown
8:30 PM 55.4 °F 44.6 °F 67% 29.80 in 6.2 mi NE 8.1 mph - N/A   Unknown
9:00 PM 55.4 °F 44.6 °F 67% 29.80 in 6.2 mi NNW 3.5 mph - N/A   Unknown
9:30 PM 53.6 °F 46.4 °F 77% 29.83 in 6.2 mi North 5.8 mph - N/A   Unknown
10:00 PM 53.6 °F 42.8 °F 67% 29.83 in 6.2 mi North 4.6 mph - N/A   Unknown
10:30 PM 53.6 °F 39.2 °F 58% 29.83 in 6.2 mi WNW 4.6 mph - N/A   Unknown
11:00 PM 53.6 °F 37.4 °F 54% 29.83 in 6.2 mi West 5.8 mph - N/A   Unknown
11:30 PM 51.8 °F 39.2 °F 62% 29.83 in 6.2 mi Variable 2.3 mph - N/A   Unknown